Regional Weather Roundup
Issued by NWS New Orleans/Baton Rouge, LA

Home | Current Version | Previous Version | Graphics & Text | Print | Product List | Glossary On
Versions: 1 2 3 4 5 6 7 8 9 10 11 12 13 14 15 16 17 18 19 20 21 22 23 24 25 26 27 28 29 30 31 32 33 34 35 36 37 38 39 40 41 42 43 44 45 46 47 48 49 50
949
ASUS44 KLIX 011710
RWRLIX
NEW ORLEANS REGIONAL WEATHER ROUNDUP
NATIONAL WEATHER SERVICE NEW ORLEANS LA
1200 PM CDT WED OCT 01 2014

NOTE: "FAIR" INDICATES FEW OR NO CLOUDS BELOW 12,000 FEET WITH NO
      SIGNIFICANT WEATHER AND/OR OBSTRUCTIONS TO VISIBILITY.
      SKY/WX - SKY CONDITION AND SIGNIFICANT WEATHER.
      TMP - AIR TEMPERATURE.     DP    - DEWPOINT TEMPERATURE.
      RH  - RELATIVE HUMIDITY.   PRES  - PRESSURE.
      HI  - HEAT INDEX.          WCI   - WIND CHILL INDEX.

*  THESE STATIONS ARE NOT NWS OR FAA STATIONS AND ARE NOT UNDER
   NWS QUALITY CONTROL.

LAZ038-040-048-061>063-065>067-069-011800-
SOUTHEAST LOUISIANA

CITY           SKY/WX    TMP DP  RH WIND       PRES   REMARKS
N.O. AUDUBON     N/A     76  73  90 MISG        N/A
N.O. INTL ARPT LGT RAIN  77  73  87 SE10      29.94F
N.O. LAKEFRONT LGT RAIN  77  73  87 S10       29.96F
N.O. DOWNTOWN* CLOUDY    75  70  83 SE5       29.95F
SLIDELL        CLOUDY    84  71  65 SE7       29.95F
BATON ROUGE    LGT RAIN  79  75  87 E7        29.94F
BOOTHVILLE     LGT RAIN  79  76  90 E3        29.97R
BELLE CHASSE   LGT RAIN  76  71  85 NE3       29.94F FOG
BOGALUSA*        N/A     84  70  62 S10       29.98S
GALLIANO*      NOT AVBL
NEW ROADS*     CLOUDY    81  74  79 SE12G17   29.93F
GONZALES*      LGT RAIN  78  78 100 SE3       29.93F
HAMMOND*       CLOUDY    81  72  74 E3        29.96F
HOUMA*         PTSUNNY  N/A N/A N/A SE7       29.93F
PORT FOURCHON* MOSUNNY   81  75  83 E10       29.97S

$$

MSZ070-080>082-011800-
SOUTHERN MISSISSIPPI

CITY           SKY/WX    TMP DP  RH WIND       PRES   REMARKS
MCCOMB         PTSUNNY   81  70  69 SE10      29.97S
GULFPORT       PTSUNNY   82  72  71 SE8       29.96S
BILOXI         PTSUNNY   84  72  66 S8        29.97S
PASCAGOULA     MOSUNNY   84  71  65 VRB5      29.97S
STENNIS ARPT*  PTSUNNY   82  70  65 SE9       29.97S

$$

COASTAL OBSERVATIONS
LAKE AND NEARSHORE STATIONS

STATION/POSITION TIME  TEMP    WIND        PRES    WAVE
                       AIR SEA DIR/SP/G            HT/PER
                 (UTC) (F)     (DEG/KT/KT) (MB)    (FT/S)
PASCAGOULA       1700   82     110/  5/ 10 1014.4
WAVELAND YACHT   1700   79     130/  8/ 10 1014.2
GRAND ISLE       1700   78 81  100/  5/  7 1014.5
SOUTHWEST PASS   1700   82 85  130/  6/  9 1014.7
NEW CANAL        1700   78 77  140/  3/  8 1014.5
SHELL BEACH      1700   79 76  120/  6/  8 1014.3

OFFSHORE STATIONS

STATION/POSITION TIME  TEMP    WIND        PRES    WAVE
                       AIR SEA DIR/SP/G            HT/PER
                 (UTC) (F)     (DEG/KT/KT) (MB)    (FT/S)
64 S DAUPHIN ISL 1609   81 83  130/  6/  8 1015.0    1/ 4

$$




USA.gov is the U.S. government's official web portal to all federal, state and local government web resources and services.